EN

Hourly Weather Laguna Niguel

Today, 26 July, Monday

Time Temperature Precipitation Wind Pressure Humidity
00:00 +22°C° 0 mm 1 mps 744 mmHg 78%
01:00 +22°C° 0 mm 1 mps 744 mmHg 79%
02:00 +22°C° 0.1 mm 1 mps 744 mmHg 80%
03:00 +20°C° 0.1 mm 0 mps 744 mmHg 81%
04:00 +20°C° 0 mm 0 mps 744 mmHg 82%
05:00 +22°C° 0.4 mm 1 mps 744 mmHg 83%
06:00 +23°C° 0.4 mm 1 mps 744 mmHg 84%
07:00 +23°C° 0.4 mm 1 mps 744 mmHg 84%
08:00 +24°C° 0.2 mm 2 mps 744 mmHg 81%
09:00 +24°C° 0.2 mm 2 mps 745 mmHg 78%
10:00 +25°C° 0.2 mm 2 mps 745 mmHg 74%
11:00 +27°C° 0 mm 3 mps 745 mmHg 68%
12:00 +28°C° 0 mm 3 mps 744 mmHg 62%
13:00 +30°C° 0 mm 3 mps 744 mmHg 56%
14:00 +29°C° 0 mm 3 mps 744 mmHg 58%
15:00 +29°C° 0 mm 3 mps 744 mmHg 59%
16:00 +28°C° 0 mm 3 mps 744 mmHg 61%
17:00 +27°C° 0 mm 3 mps 744 mmHg 66%
18:00 +25°C° 0 mm 3 mps 744 mmHg 71%
19:00 +24°C° 0 mm 2 mps 744 mmHg 77%
20:00 +24°C° 0 mm 2 mps 744 mmHg 78%
21:00 +23°C° 0 mm 1 mps 745 mmHg 80%
22:00 +23°C° 0 mm 1 mps 745 mmHg 82%
23:00 +23°C° 0 mm 1 mps 745 mmHg 83%

Tomorrow, 27 July, Tuesday

Time Temperature Precipitation Wind Pressure Humidity
00:00 +23°C° 0 mm 1 mps 744 mmHg 84%
01:00 +21°C° 0 mm 2 mps 744 mmHg 84%
02:00 +21°C° 0 mm 2 mps 744 mmHg 85%
03:00 +21°C° 0 mm 2 mps 744 mmHg 85%
04:00 +21°C° 0 mm 2 mps 744 mmHg 85%
05:00 +23°C° 0 mm 2 mps 744 mmHg 79%
06:00 +25°C° 0 mm 2 mps 744 mmHg 73%
07:00 +26°C° 0 mm 2 mps 745 mmHg 66%
08:00 +28°C° 0 mm 3 mps 745 mmHg 60%
09:00 +30°C° 0 mm 3 mps 745 mmHg 54%
10:00 +31°C° 0 mm 3 mps 745 mmHg 47%
11:00 +33°C° 0 mm 4 mps 745 mmHg 46%
12:00 +33°C° 0 mm 4 mps 745 mmHg 45%
13:00 +34°C° 0 mm 4 mps 745 mmHg 44%
14:00 +33°C° 0 mm 4 mps 745 mmHg 46%
15:00 +31°C° 0 mm 3 mps 745 mmHg 49%
16:00 +30°C° 0 mm 3 mps 745 mmHg 52%
17:00 +29°C° 0.1 mm 3 mps 745 mmHg 55%
18:00 +28°C° 0.1 mm 3 mps 745 mmHg 59%
19:00 +27°C° 0.1 mm 3 mps 745 mmHg 63%
20:00 +26°C° 0 mm 2 mps 745 mmHg 65%
21:00 +26°C° 0 mm 2 mps 745 mmHg 66%
22:00 +25°C° 0 mm 2 mps 745 mmHg 68%
23:00 +25°C° 0 mm 2 mps 745 mmHg 69%

Day after tomorrow, 28 July, Wednesday

Time Temperature Precipitation Wind Pressure Humidity
00:00 +24°C° 0 mm 2 mps 745 mmHg 71%
01:00 +24°C° 0 mm 2 mps 745 mmHg 72%
02:00 +24°C° 0 mm 2 mps 745 mmHg 71%
03:00 +24°C° 0 mm 2 mps 745 mmHg 71%
04:00 +24°C° 0 mm 2 mps 745 mmHg 70%
05:00 +25°C° 0 mm 2 mps 745 mmHg 66%
06:00 +26°C° 0 mm 2 mps 745 mmHg 63%
07:00 +27°C° 0 mm 2 mps 746 mmHg 59%
08:00 +29°C° 0 mm 2 mps 746 mmHg 53%
09:00 +31°C° 0 mm 3 mps 746 mmHg 46%
10:00 +33°C° 0 mm 3 mps 746 mmHg 40%
11:00 +34°C° 0 mm 4 mps 746 mmHg 38%
12:00 +34°C° 0 mm 4 mps 746 mmHg 36%
13:00 +35°C° 0 mm 4 mps 746 mmHg 34%
14:00 +34°C° 0 mm 4 mps 745 mmHg 33%
15:00 +34°C° 0 mm 4 mps 745 mmHg 33%
16:00 +34°C° 0 mm 4 mps 745 mmHg 32%
17:00 +32°C° 0 mm 4 mps 745 mmHg 36%
18:00 +29°C° 0 mm 3 mps 745 mmHg 41%
19:00 +27°C° 0 mm 2 mps 745 mmHg 45%
20:00 +27°C° 0 mm 2 mps 745 mmHg 48%
21:00 +26°C° 0 mm 2 mps 745 mmHg 50%
22:00 +25°C° 0 mm 1 mps 745 mmHg 53%
23:00 +25°C° 0 mm 1 mps 745 mmHg 54%

29 July, Thursday

Time Temperature Precipitation Wind Pressure Humidity
00:00 +25°C° 0 mm 1 mps 744 mmHg 55%
01:00 +24°C° 0 mm 1 mps 744 mmHg 56%
02:00 +24°C° 0 mm 1 mps 744 mmHg 57%
03:00 +24°C° 0 mm 1 mps 744 mmHg 57%
04:00 +24°C° 0 mm 1 mps 743 mmHg 58%
05:00 +25°C° 0 mm 1 mps 744 mmHg 53%
06:00 +27°C° 0 mm 1 mps 744 mmHg 48%
07:00 +28°C° 0 mm 1 mps 744 mmHg 44%
08:00 +30°C° 0 mm 2 mps 744 mmHg 40%
09:00 +31°C° 0 mm 2 mps 744 mmHg 37%
10:00 +34°C° 0 mm 3 mps 744 mmHg 34%
11:00 +35°C° 0 mm 3 mps 744 mmHg 32%
12:00 +35°C° 0 mm 4 mps 744 mmHg 31%
13:00 +36°C° 0 mm 4 mps 743 mmHg 30%
14:00 +35°C° 0 mm 4 mps 743 mmHg 31%
15:00 +35°C° 0 mm 4 mps 743 mmHg 31%
16:00 +34°C° 0 mm 4 mps 742 mmHg 32%
17:00 +31°C° 0 mm 3 mps 743 mmHg 37%
18:00 +29°C° 0 mm 3 mps 743 mmHg 43%
19:00 +28°C° 0 mm 2 mps 743 mmHg 49%
20:00 +27°C° 0 mm 2 mps 743 mmHg 53%
21:00 +26°C° 0 mm 1 mps 743 mmHg 57%
22:00 +25°C° 0 mm 1 mps 744 mmHg 61%
23:00 +25°C° 0 mm 1 mps 743 mmHg 62%

30 July, Friday

Time Temperature Precipitation Wind Pressure Humidity
00:00 +22°C° 0 mm 0 mps 743 mmHg 63%
01:00 +22°C° 0 mm 0 mps 743 mmHg 64%
02:00 +24°C° 0 mm 1 mps 743 mmHg 64%
03:00 +24°C° 0 mm 1 mps 742 mmHg 64%
04:00 +24°C° 0 mm 1 mps 742 mmHg 65%
05:00 +25°C° 0 mm 1 mps 742 mmHg 59%
06:00 +26°C° 0 mm 1 mps 743 mmHg 53%
07:00 +28°C° 0 mm 1 mps 743 mmHg 48%
08:00 +30°C° 0 mm 1 mps 743 mmHg 43%
09:00 +32°C° 0 mm 1 mps 743 mmHg 39%
10:00 +34°C° 0 mm 2 mps 743 mmHg 34%
11:00 +35°C° 0 mm 2 mps 743 mmHg 33%
12:00 +36°C° 0 mm 3 mps 743 mmHg 32%
13:00 +36°C° 0 mm 3 mps 743 mmHg 32%
14:00 +35°C° 0 mm 3 mps 743 mmHg 33%
15:00 +34°C° 0 mm 3 mps 743 mmHg 35%
16:00 +33°C° 0 mm 3 mps 743 mmHg 37%
17:00 +31°C° 0 mm 3 mps 743 mmHg 41%
18:00 +30°C° 0 mm 3 mps 743 mmHg 45%
19:00 +28°C° 0 mm 3 mps 743 mmHg 49%
20:00 +28°C° 0 mm 2 mps 743 mmHg 52%
21:00 +27°C° 0 mm 2 mps 743 mmHg 55%
22:00 +26°C° 0 mm 2 mps 744 mmHg 57%
23:00 +26°C° 0 mm 2 mps 743 mmHg 59%

31 July, Saturday

Time Temperature Precipitation Wind Pressure Humidity
00:00 +26°C° 0 mm 1 mps 743 mmHg 60%
01:00 +26°C° 0 mm 1 mps 743 mmHg 62%
02:00 +26°C° 0 mm 1 mps 743 mmHg 61%
03:00 +26°C° 0 mm 1 mps 743 mmHg 61%
04:00 +26°C° 0 mm 1 mps 743 mmHg 61%
05:00 +26°C° 0 mm 1 mps 744 mmHg 59%
06:00 +25°C° 0 mm 0 mps 744 mmHg 57%
07:00 +25°C° 0 mm 0 mps 744 mmHg 54%
08:00 +29°C° 0 mm 1 mps 744 mmHg 49%
09:00 +31°C° 0 mm 2 mps 744 mmHg 44%
10:00 +34°C° 0 mm 2 mps 744 mmHg 38%
11:00 +34°C° 0 mm 3 mps 744 mmHg 37%
12:00 +35°C° 0 mm 3 mps 744 mmHg 35%
13:00 +35°C° 0 mm 4 mps 744 mmHg 33%
14:00 +35°C° 0 mm 3 mps 744 mmHg 34%
15:00 +34°C° 0 mm 3 mps 744 mmHg 35%
16:00 +33°C° 0 mm 3 mps 744 mmHg 36%
17:00 +30°C° 0 mm 2 mps 744 mmHg 42%
18:00 +28°C° 0 mm 2 mps 744 mmHg 49%
19:00 +26°C° 0 mm 2 mps 744 mmHg 56%
20:00 +26°C° 0 mm 1 mps 744 mmHg 57%
21:00 +26°C° 0 mm 1 mps 744 mmHg 58%
22:00 +25°C° 0 mm 1 mps 745 mmHg 59%
23:00 +25°C° 0 mm 1 mps 745 mmHg 60%
Show more